Simultaneous Nadir Overpasses (SNOs) Predictions

Prediction of SNOs between AQUA and METOP-B Satellite Orbit:

Table of predicted SNOs for the next 14.0 days since TLE Epoch: 10/16/2021
Index Date (AQUA) Time (AQUA) Lat,Lon (AQUA) SZA (AQUA ) Date (METOP-B) Time (METOP-B) Lat,Lon (METOP-B) SZA (METOP-B ) Distance(km) Time Diff (sec)
1 10/16/2021 05:06:25 -73.21, -81.13 97.92 10/16/2021 05:05:17 -73.16, -83.39 97.94 72.83 68
2 10/16/2021 05:56:03 73.76, 85.34 82.66 10/16/2021 05:55:44 73.78, 85.35 82.68 2.11 19
3 10/16/2021 06:45:30 -73.83,-107.17 97.26 10/16/2021 06:46:25 -73.84,-107.18 97.26 0.99 55
4 10/19/2021 00:40:45 -73.51, -15.32 96.59 10/19/2021 00:39:34 -73.46, -16.30 96.62 31.57 71
5 10/19/2021 01:30:17 73.75, 151.80 83.68 10/19/2021 01:30:07 73.78, 151.76 83.70 3.07 10
6 10/19/2021 02:19:44 -73.82, -40.71 96.25 10/19/2021 02:20:48 -73.84, -40.76 96.23 2.79 64
7 10/21/2021 20:15:03 -73.73, 50.67 95.37 10/21/2021 20:13:52 -73.71, 50.68 95.37 1.31 71
8 10/21/2021 21:04:31 73.76,-141.77 84.69 10/21/2021 21:04:30 73.78,-141.84 84.71 2.86 1
9 10/21/2021 21:53:58 -73.83, 25.72 95.24 10/21/2021 21:55:11 -73.84, 25.64 95.22 3.03 73
10 10/24/2021 15:49:17 -73.74, 117.08 94.36 10/24/2021 15:48:15 -73.71, 117.08 94.39 3.43 62
11 10/24/2021 16:38:44 73.78, -75.37 85.69 10/24/2021 16:38:52 73.77, -75.44 85.69 2.41 8
12 10/24/2021 17:28:17 -74.15, 91.43 93.92 10/24/2021 17:29:27 -74.14, 92.77 93.95 40.75 70
13 10/27/2021 11:23:29 -73.72,-176.43 93.42 10/27/2021 11:22:37 -73.71,-176.52 93.44 3.31 52
14 10/27/2021 12:12:58 73.81, -8.99 86.68 10/27/2021 12:13:14 73.82, -8.93 86.69 1.90 16



Historial Predications of SNOs between AQUA and METOP-B
